• In Deutschland
  • Länderverzeichnis
  • Für 7 Tage
  • Wassertemperatur
  • Satellitenkarten
  • Wetterkarte
  • Widgets
  • user-avatar
    Anmelden

    Stündliche Wetter Jechegnadsor

    Heute, 18 Juni, Montag

    Zeit Temperatur Niederschläge Wind Luftdruck Luftfeuchtigkeit
    00:00 +18°C° 0 mm 2 m/S 649 mmHg 50%
    01:00 +18°C° 0 mm 2 m/S 649 mmHg 49%
    02:00 +18°C° 0 mm 2 m/S 649 mmHg 49%
    03:00 +17°C° 0 mm 2 m/S 649 mmHg 49%
    04:00 +18°C° 0 mm 2 m/S 649 mmHg 50%
    05:00 +19°C° 0 mm 2 m/S 649 mmHg 51%
    06:00 +20°C° 0 mm 2 m/S 649 mmHg 52%
    07:00 +21°C° 0 mm 2 m/S 650 mmHg 48%
    08:00 +24°C° 0 mm 2 m/S 650 mmHg 43%
    09:00 +25°C° 0 mm 2 m/S 650 mmHg 39%
    10:00 +26°C° 0 mm 3 m/S 650 mmHg 36%
    11:00 +27°C° 0 mm 3 m/S 650 mmHg 33%
    12:00 +28°C° 0 mm 4 m/S 650 mmHg 31%
    13:00 +28°C° 0 mm 3 m/S 650 mmHg 30%
    14:00 +29°C° 0 mm 3 m/S 650 mmHg 29%
    15:00 +29°C° 0 mm 3 m/S 649 mmHg 28%
    16:00 +28°C° 0,1 mm 3 m/S 649 mmHg 31%
    17:00 +28°C° 0,1 mm 2 m/S 649 mmHg 34%
    18:00 +27°C° 0,1 mm 2 m/S 649 mmHg 37%
    19:00 +25°C° 0,1 mm 2 m/S 649 mmHg 43%
    20:00 +23°C° 0,1 mm 2 m/S 649 mmHg 50%
    21:00 +19°C° 0,1 mm 2 m/S 649 mmHg 56%
    22:00 +19°C° 0 mm 2 m/S 649 mmHg 57%
    23:00 +18°C° 0 mm 2 m/S 649 mmHg 57%

    Morgen, 19 Juni, Dienstag

    Zeit Temperatur Niederschläge Wind Luftdruck Luftfeuchtigkeit
    00:00 +18°C° 0 mm 2 m/S 650 mmHg 58%
    01:00 +17°C° 0 mm 2 m/S 650 mmHg 58%
    02:00 +17°C° 0 mm 2 m/S 650 mmHg 59%
    03:00 +16°C° 0 mm 1 m/S 650 mmHg 59%
    04:00 +18°C° 0 mm 1 m/S 650 mmHg 57%
    05:00 +19°C° 0 mm 1 m/S 651 mmHg 55%
    06:00 +20°C° 0 mm 1 m/S 651 mmHg 53%
    07:00 +22°C° 0 mm 1 m/S 651 mmHg 48%
    08:00 +23°C° 0 mm 2 m/S 652 mmHg 43%
    09:00 +25°C° 0 mm 2 m/S 652 mmHg 38%
    10:00 +26°C° 0 mm 2 m/S 652 mmHg 37%
    11:00 +27°C° 0 mm 2 m/S 653 mmHg 35%
    12:00 +28°C° 0 mm 3 m/S 653 mmHg 34%
    13:00 +28°C° 0,1 mm 3 m/S 653 mmHg 34%
    14:00 +28°C° 0,1 mm 3 m/S 652 mmHg 33%
    15:00 +28°C° 0,1 mm 3 m/S 652 mmHg 33%
    16:00 +28°C° 0,1 mm 2 m/S 652 mmHg 36%
    17:00 +27°C° 0,1 mm 2 m/S 652 mmHg 39%
    18:00 +27°C° 0,1 mm 2 m/S 652 mmHg 42%
    19:00 +25°C° 0 mm 2 m/S 652 mmHg 47%
    20:00 +23°C° 0 mm 2 m/S 652 mmHg 53%
    21:00 +20°C° 0 mm 2 m/S 652 mmHg 58%
    22:00 +19°C° 0 mm 2 m/S 652 mmHg 59%
    23:00 +19°C° 0 mm 2 m/S 652 mmHg 59%

    übermorgen, 20 Juni, Mittwoch

    Zeit Temperatur Niederschläge Wind Luftdruck Luftfeuchtigkeit
    00:00 +18°C° 0 mm 2 m/S 652 mmHg 60%
    01:00 +18°C° 0 mm 2 m/S 652 mmHg 60%
    02:00 +18°C° 0 mm 2 m/S 652 mmHg 59%
    03:00 +17°C° 0 mm 2 m/S 652 mmHg 59%
    04:00 +18°C° 0 mm 2 m/S 652 mmHg 58%
    05:00 +19°C° 0 mm 2 m/S 653 mmHg 57%
    06:00 +20°C° 0 mm 2 m/S 653 mmHg 55%
    07:00 +21°C° 0 mm 2 m/S 653 mmHg 50%
    08:00 +24°C° 0 mm 2 m/S 654 mmHg 45%
    09:00 +26°C° 0 mm 2 m/S 654 mmHg 40%
    10:00 +27°C° 0,1 mm 2 m/S 654 mmHg 38%
    11:00 +28°C° 0,1 mm 3 m/S 654 mmHg 36%
    12:00 +29°C° 0,1 mm 3 m/S 654 mmHg 34%
    13:00 +29°C° 0,1 mm 3 m/S 654 mmHg 33%
    14:00 +29°C° 0,1 mm 3 m/S 654 mmHg 33%
    15:00 +29°C° 0,1 mm 3 m/S 653 mmHg 32%
    16:00 +29°C° 0,1 mm 3 m/S 653 mmHg 36%
    17:00 +28°C° 0,1 mm 2 m/S 653 mmHg 40%
    18:00 +27°C° 0,1 mm 2 m/S 653 mmHg 44%
    19:00 +25°C° 0,2 mm 2 m/S 653 mmHg 50%
    20:00 +22°C° 0,2 mm 3 m/S 653 mmHg 57%
    21:00 +20°C° 0,2 mm 3 m/S 653 mmHg 64%
    22:00 +19°C° 0,1 mm 3 m/S 653 mmHg 65%
    23:00 +19°C° 0,1 mm 2 m/S 653 mmHg 66%

    21 Juni, Donnerstag

    Zeit Temperatur Niederschläge Wind Luftdruck Luftfeuchtigkeit
    00:00 +18°C° 0,1 mm 2 m/S 653 mmHg 67%
    01:00 +18°C° 0 mm 2 m/S 653 mmHg 67%
    02:00 +18°C° 0 mm 2 m/S 653 mmHg 66%
    03:00 +17°C° 0 mm 2 m/S 653 mmHg 66%
    04:00 +18°C° 0 mm 2 m/S 653 mmHg 64%
    05:00 +19°C° 0 mm 2 m/S 654 mmHg 62%
    06:00 +20°C° 0 mm 2 m/S 654 mmHg 60%
    07:00 +21°C° 0 mm 2 m/S 654 mmHg 54%
    08:00 +24°C° 0 mm 2 m/S 655 mmHg 47%
    09:00 +26°C° 0 mm 2 m/S 655 mmHg 41%
    10:00 +27°C° 0 mm 2 m/S 655 mmHg 38%
    11:00 +28°C° 0 mm 2 m/S 655 mmHg 35%
    12:00 +29°C° 0 mm 3 m/S 655 mmHg 33%
    13:00 +30°C° 0 mm 3 m/S 654 mmHg 32%
    14:00 +30°C° 0 mm 3 m/S 654 mmHg 31%
    15:00 +30°C° 0 mm 3 m/S 654 mmHg 29%
    16:00 +30°C° 0 mm 3 m/S 653 mmHg 32%
    17:00 +29°C° 0 mm 2 m/S 653 mmHg 35%
    18:00 +29°C° 0 mm 2 m/S 653 mmHg 38%
    19:00 +26°C° 0 mm 2 m/S 653 mmHg 45%
    20:00 +24°C° 0 mm 3 m/S 653 mmHg 52%
    21:00 +21°C° 0 mm 3 m/S 652 mmHg 59%
    22:00 +20°C° 0 mm 3 m/S 652 mmHg 58%
    23:00 +20°C° 0 mm 3 m/S 652 mmHg 58%

    22 Juni, Freitag

    Zeit Temperatur Niederschläge Wind Luftdruck Luftfeuchtigkeit
    00:00 +19°C° 0 mm 3 m/S 652 mmHg 57%
    01:00 +19°C° 0 mm 3 m/S 652 mmHg 56%
    02:00 +19°C° 0 mm 2 m/S 652 mmHg 55%
    03:00 +18°C° 0 mm 2 m/S 652 mmHg 53%
    04:00 +19°C° 0 mm 2 m/S 652 mmHg 52%
    05:00 +20°C° 0 mm 2 m/S 652 mmHg 51%
    06:00 +21°C° 0 mm 2 m/S 652 mmHg 50%
    07:00 +24°C° 0 mm 2 m/S 653 mmHg 45%
    08:00 +26°C° 0 mm 2 m/S 653 mmHg 39%
    09:00 +27°C° 0 mm 2 m/S 653 mmHg 34%
    10:00 +28°C° 0 mm 2 m/S 653 mmHg 32%
    11:00 +30°C° 0 mm 3 m/S 653 mmHg 30%
    12:00 +31°C° 0 mm 3 m/S 653 mmHg 28%
    13:00 +31°C° 0 mm 3 m/S 652 mmHg 28%
    14:00 +31°C° 0 mm 3 m/S 652 mmHg 27%
    15:00 +31°C° 0 mm 3 m/S 652 mmHg 27%
    16:00 +31°C° 0 mm 3 m/S 651 mmHg 30%
    17:00 +30°C° 0 mm 2 m/S 651 mmHg 33%
    18:00 +29°C° 0 mm 2 m/S 651 mmHg 35%
    19:00 +27°C° 0 mm 2 m/S 651 mmHg 43%
    20:00 +25°C° 0 mm 2 m/S 651 mmHg 50%
    21:00 +21°C° 0 mm 3 m/S 651 mmHg 57%
    22:00 +21°C° 0 mm 3 m/S 651 mmHg 57%
    23:00 +20°C° 0 mm 2 m/S 651 mmHg 57%

    23 Juni, Samstag

    Zeit Temperatur Niederschläge Wind Luftdruck Luftfeuchtigkeit
    00:00 +20°C° 0 mm 2 m/S 651 mmHg 58%
    01:00 +19°C° 0 mm 2 m/S 651 mmHg 57%
    02:00 +19°C° 0 mm 2 m/S 650 mmHg 56%
    03:00 +19°C° 0 mm 2 m/S 650 mmHg 54%
    04:00 +20°C° 0 mm 2 m/S 651 mmHg 53%
    05:00 +21°C° 0 mm 1 m/S 651 mmHg 52%
    06:00 +22°C° 0 mm 1 m/S 652 mmHg 50%
    07:00 +24°C° 0 mm 1 m/S 652 mmHg 45%
    08:00 +26°C° 0 mm 1 m/S 652 mmHg 40%
    09:00 +27°C° 0 mm 2 m/S 653 mmHg 35%
    10:00 +28°C° 0 mm 2 m/S 653 mmHg 33%
    11:00 +29°C° 0 mm 2 m/S 653 mmHg 31%
    12:00 +30°C° 0 mm 2 m/S 652 mmHg 29%
    13:00 +31°C° 0,1 mm 2 m/S 652 mmHg 29%
    14:00 +31°C° 0,1 mm 2 m/S 652 mmHg 28%
    15:00 +31°C° 0,1 mm 2 m/S 652 mmHg 28%
    16:00 +30°C° 0,1 mm 2 m/S 652 mmHg 31%
    17:00 +30°C° 0,1 mm 2 m/S 652 mmHg 35%
    18:00 +29°C° 0,1 mm 2 m/S 652 mmHg 38%
    19:00 +27°C° 0 mm 2 m/S 652 mmHg 45%
    20:00 +25°C° 0 mm 2 m/S 652 mmHg 51%
    21:00 +23°C° 0 mm 2 m/S 652 mmHg 58%
    22:00 +21°C° 0 mm 2 m/S 652 mmHg 60%
    23:00 +21°C° 0 mm 2 m/S 652 mmHg 63%
    Mehr zeigen